Location: La Trinit�
(48.1620°N, 3.4512°W)
Time: 16:52:31
(UTC+00:00)

Cosmos 1271 Rocket - Pass Details

Date: 08 May 2021
Orbit: 497 x 545 km, 81.2° (Epoch: 24 June)

Event Time Altitude Azimuth Distance (km) Brightness Sun altitude
Exits shadow 22:34:25 50° 220° (SW) 700 3.1 -21.1°
Maximum altitude 22:35:18 69° 282° (WNW) 587 3.0 -21.1°
Drops below altitude 10° 22:39:20 10° 7° (N) 1,828 6.3 -21.4°
Sets 22:41:31 0° 10° (N) 2,726 7.3 -21.6°
